Theta_e
283 283 283 283 283 283 283 285 281 282 283 287 289 288 290 291 291 291 290 290 290 290 290 290 291 291 291 291 291 290 289 289 289 289 289 288 288 288 288 288 289 289 289 290
281 285 285 283 284 285 286 283 282 281 283 289 292 289 290 291 291 290 289 289 290 290 290 290 290 290 290 290 289 288 287 287 287 286 286 286 286 286 286 286 287 287 287 287
274 283 284 278 284 284 285 285 286 283 287 290 288 290 289 290 290 289 289 289 289 289 289 289 289 289 289 289 288 286 286 285 284 284 283 284 284 284 284 285 285 285 285 286
280 281 275 284 284 288 288 288 288 288 289 291 290 290 291 290 288 288 289 289 289 289 289 289 288 288 287 286 286 285 284 283 282 283 282 282 281 282 282 283 283 283 283 284
280 281 281 282 283 285 286 286 290 289 288 288 287 287 286 288 288 288 289 289 289 288 288 287 287 286 285 285 284 284 284 283 283 281 280 280 279 280 281 281 281 280 282 281
280 278 277 282 284 288 287 280 287 291 288 286 287 284 285 287 286 287 287 288 288 287 286 286 285 284 284 283 282 283 283 282 281 280 278 278 280 279 279 278 279 280 280 280
281 277 278 281 283 285 280 281 281 287 287 286 285 286 286 286 286 286 286 287 286 285 285 284 284 283 282 281 281 281 279 279 279 278 277 277 278 277 277 276 277 277 278 279
280 278 278 282 281 282 283 282 283 284 284 284 283 283 283 284 284 284 284 284 285 285 284 283 281 279 278 279 280 277 276 276 276 275 276 278 278 275 274 273 274 275 275 278
284 283 282 281 282 283 285 284 284 284 284 285 283 282 282 282 283 283 283 283 283 280 279 281 276 276 276 278 277 276 273 276 279 279 275 279 279 276 276 273 274 276 276 277
282 279 279 283 284 284 285 285 284 283 283 283 282 282 281 281 281 281 279 278 276 275 274 275 275 275 273 275 276 272 272 274 276 278 281 282 281 278 276 276 276 276 276 277
272 276 277 279 281 284 284 283 282 282 282 282 282 280 280 280 279 278 278 276 274 273 272 273 273 272 270 273 272 271 271 273 275 278 279 280 281 281 278 278 278 279 279 278
277 281 283 284 284 283 282 282 282 282 281 281 281 280 280 278 278 276 273 272 270 268 268 269 269 269 268 266 268 267 270 272 273 275 276 277 278 279 282 283 284 285 286 285
280 284 282 285 286 282 282 282 282 282 281 280 278 277 274 274 272 271 269 268 266 266 266 265 265 266 264 264 261 263 265 268 269 270 271 273 275 276 276 279 284 285 285 285
282 281 280 281 283 282 282 281 277 275 275 276 273 268 268 267 266 265 265 264 262 261 261 261 262 263 266 264 259 261 262 264 265 267 268 270 273 275 277 276 276 277 279 284
281 279 281 280 279 278 276 274 272 272 271 268 266 264 262 260 258 258 257 257 257 256 256 257 259 262 263 261 261 262 263 264 265 266 267 269 272 274 276 276 275 274 276 278
275 272 272 276 277 274 271 268 271 270 267 265 263 262 261 259 256 254 253 252 253 257 257 258 259 261 262 256 260 260 261 262 264 265 266 268 270 273 275 276 275 275 275 275
272 270 267 268 272 271 271 268 269 268 265 263 260 258 255 253 252 250 250 250 251 253 255 257 258 260 256 258 258 260 261 262 263 264 265 267 269 272 276 275 275 275 275 273
278 279 278 274 273 268 263 262 262 261 259 258 256 253 250 248 249 250 250 249 250 250 254 255 255 257 260 259 258 259 260 261 263 264 266 268 270 273 276 275 274 273 272 274
265 271 266 266 267 268 261 257 255 254 253 252 250 249 247 247 247 247 247 246 249 249 253 252 260 260 257 257 261 262 262 262 264 265 267 268 270 273 275 274 272 271 269 267
257 258 257 255 254 255 254 251 252 251 247 247 245 244 245 246 244 244 244 246 249 252 253 254 254 255 257 258 260 260 261 262 263 264 266 268 270 272 272 272 270 268 266 265
258 255 254 254 251 250 252 251 251 250 247 245 246 245 246 245 243 243 245 247 251 250 254 256 255 258 261 261 261 261 261 262 263 264 266 267 268 268 268 267 266 265 263 262
252 253 252 251 251 248 244 246 247 247 246 243 242 242 241 244 244 245 246 249 251 254 254 255 256 259 260 260 259 260 260 261 262 263 264 265 266 265 265 264 263 262 262 261
250 250 250 249 250 248 243 242 243 245 246 244 246 245 247 248 247 248 249 248 250 252 251 252 256 261 260 257 258 259 259 259 260 260 261 262 263 263 263 262 262 261 261 260
248 249 247 245 245 247 248 243 241 242 242 242 243 244 246 246 246 247 248 250 251 253 251 253 258 261 257 255 257 257 258 258 258 259 259 260 260 261 261 261 260 260 260 260
249 247 246 248 248 247 246 242 241 241 242 242 243 244 244 247 248 247 246 248 252 252 250 254 259 258 253 253 256 256 257 257 257 257 257 258 258 258 258 259 259 259 259 258
248 250 248 247 246 248 246 244 247 243 243 244 243 243 244 245 247 248 248 250 250 252 250 251 251 254 253 254 255 256 256 256 256 256 256 256 257 257 257 257 257 257 257 257
249 249 247 248 247 249 248 249 250 247 243 242 244 244 244 245 246 249 250 250 250 251 251 250 253 255 254 254 255 255 256 256 256 256 256 255 256 255 255 255 255 255 255 255
Wind_Speed
1 3 5 6 12 11 11 13 10 9 12 19 17 14 8 6 6 8 7 7 6 6 6 5 5 5 5 6 7 6 7 7 7 7 7 8 9 9 9 8 8 9 10 10
2 2 2 4 9 18 19 5 1 6 7 6 9 7 6 7 8 7 6 6 6 6 6 5 4 3 3 4 4 4 4 5 5 6 6 7 7 8 8 9 9 9 10 9
5 3 5 4 16 14 7 6 13 11 8 8 7 15 10 9 8 8 7 6 6 5 5 3 4 3 5 5 4 4 4 4 4 5 5 6 7 7 7 8 8 8 9 9
4 4 6 7 1 10 16 8 7 5 7 12 9 5 6 5 8 8 8 7 5 4 2 2 1 4 4 4 3 3 3 3 3 4 5 6 6 7 8 6 8 9 9 9
6 9 4 3 6 9 11 12 12 9 7 6 9 7 4 5 5 7 7 6 5 3 2 1 1 2 4 5 5 5 6 6 6 5 7 7 7 8 7 7 7 7 7 9
4 6 14 4 4 5 5 6 8 14 13 12 7 5 5 8 7 7 6 4 4 2 1 5 6 6 7 7 7 8 9 9 7 6 6 8 8 8 5 5 9 6 9 8
5 3 7 5 5 3 8 7 2 8 9 10 6 3 7 9 6 6 5 6 4 3 2 3 4 5 6 6 6 6 6 8 8 7 7 8 8 5 8 9 9 8 9 8
3 3 7 7 4 10 5 2 4 6 6 8 10 8 8 8 7 6 5 3 3 1 3 3 3 3 3 5 5 6 7 9 9 7 6 7 9 8 7 7 8 9 9 10
7 5 2 3 2 3 4 7 5 7 7 9 10 7 7 6 5 3 3 2 2 1 2 5 3 1 4 5 6 8 7 9 9 9 6 7 10 10 9 4 6 9 7 8
6 3 3 1 2 4 5 6 8 6 9 8 8 8 6 5 2 1 1 2 2 4 4 5 4 3 5 6 7 7 9 10 10 10 11 10 7 7 7 7 7 7 7 8
3 3 1 3 4 6 7 8 9 6 6 8 9 6 6 5 4 2 2 3 3 2 3 6 5 5 5 6 7 8 8 8 9 10 11 12 12 11 8 8 8 8 7 6
6 10 5 6 8 7 10 8 10 9 7 6 7 8 5 4 4 4 4 2 3 3 5 7 7 8 6 5 6 7 10 8 8 9 9 10 12 13 14 20 20 19 19 13
6 9 1 5 14 7 10 11 8 9 7 8 5 5 4 4 4 4 1 2 3 6 7 8 9 9 6 6 3 5 9 10 8 9 9 9 10 11 13 10 12 9 13 14
7 9 4 4 9 8 8 7 7 6 6 6 6 5 4 4 3 3 3 3 4 5 6 8 9 11 10 7 4 7 8 12 9 9 8 9 9 10 10 9 8 3 4 5
10 2 5 7 7 8 5 6 6 7 6 5 5 5 4 4 2 1 3 4 5 5 6 6 8 11 8 7 7 11 10 9 8 9 9 10 10 11 11 9 6 4 2 2
4 5 4 7 9 8 6 3 6 5 5 4 4 3 2 2 1 2 4 3 4 8 9 10 11 12 8 5 10 10 9 13 12 9 9 9 9 10 10 8 7 5 4 3
8 1 0 2 8 9 8 4 5 7 6 5 4 3 2 2 2 2 3 4 5 7 8 10 12 10 7 10 10 9 9 9 13 10 10 9 9 11 10 8 7 7 6 3
10 13 14 7 12 10 6 6 7 7 5 6 5 3 3 3 3 6 5 4 5 5 8 7 7 9 9 9 10 9 9 9 9 10 10 10 11 11 9 8 7 7 4 3
6 11 8 7 7 10 10 9 7 6 6 6 5 3 3 4 4 5 4 4 5 3 4 5 12 12 10 11 12 8 9 10 10 10 10 13 11 11 7 7 7 7 7 5
5 6 8 7 6 5 9 5 8 7 5 6 5 3 2 5 4 4 2 4 5 5 6 9 8 8 10 10 12 8 10 10 11 10 10 10 10 9 4 5 6 7 7 6
11 10 11 10 7 5 7 7 8 7 6 6 5 4 5 4 4 3 1 2 4 5 6 7 5 6 8 11 11 8 9 9 9 9 9 8 6 1 2 4 5 6 7 5
5 7 8 9 9 7 3 4 5 6 6 5 3 3 3 5 4 3 4 4 4 7 4 4 4 10 9 12 7 8 8 8 7 6 6 4 2 2 3 4 6 6 6 6
7 6 7 7 7 7 5 3 3 3 5 5 6 6 5 3 2 1 3 4 3 5 3 4 8 11 13 6 7 7 8 8 8 8 7 6 4 4 4 5 5 5 5 5
6 7 6 5 6 5 6 3 3 3 2 2 4 5 3 1 3 3 3 5 6 5 3 5 7 11 9 5 6 6 7 7 7 7 7 9 6 6 5 5 5 4 4 4
8 6 5 6 6 4 5 2 3 2 2 2 3 3 2 3 3 3 3 3 4 4 3 6 9 9 4 4 5 5 5 5 6 5 6 5 5 5 4 4 3 2 2 1
4 5 4 4 4 4 4 2 3 2 2 1 2 2 3 3 3 3 2 3 2 4 2 3 4 3 3 4 5 5 5 5 6 5 5 5 4 4 4 3 2 1 1 1
5 5 4 3 1 4 3 3 3 3 2 3 2 4 3 3 2 2 3 3 3 3 2 1 4 5 3 4 5 5 5 5 6 5 4 4 4 4 4 4 3 3 3 3
Wind_Direction
68 162 135 157 171 173 194 206 179 198 180 192 196 193 191 182 134 126 119 106 102 91 73 57 49 32 21 20 11 6 11 11 2 351 352 344 345 339 334 329 324 323 324 324
85 58 155 161 179 191 207 187 137 153 229 198 179 135 168 178 157 150 137 122 108 102 99 84 52 28 7 11 7 357 351 343 329 331 332 330 324 324 322 323 326 326 324 318
223 136 102 321 209 187 193 189 180 194 192 153 149 178 184 176 167 154 151 141 123 100 84 68 23 354 4 346 343 341 314 302 307 310 304 304 300 299 303 313 313 315 311 311
122 127 184 250 25 192 194 191 182 114 166 167 160 133 138 139 147 152 151 150 140 128 102 101 4 352 326 309 302 294 277 275 276 311 313 309 310 309 313 309 308 311 307 304
169 207 310 227 197 156 170 230 193 150 145 125 117 92 55 141 142 158 154 152 148 140 147 118 68 327 334 352 3 0 1 348 340 332 323 318 310 307 302 302 304 291 291 292
157 173 205 214 181 160 113 279 174 158 168 152 146 162 191 163 142 133 128 135 144 114 31 24 12 8 6 349 354 352 344 329 318 312 309 314 312 310 302 283 295 295 295 282
170 186 280 231 159 177 145 239 152 149 147 146 156 180 139 136 122 130 139 142 136 116 39 350 13 11 356 338 335 311 313 313 310 311 309 305 305 304 310 311 308 306 298 291
123 130 254 158 73 163 193 69 138 120 134 122 122 118 118 126 133 132 121 108 102 85 349 1 55 58 319 312 295 310 314 309 304 299 300 300 293 300 286 284 293 296 298 303
174 204 336 200 96 119 148 134 157 127 133 132 131 135 132 125 103 74 34 357 38 125 342 327 30 59 317 297 320 314 310 300 302 302 289 297 300 302 305 277 284 293 289 295
124 216 188 171 81 151 166 135 131 125 130 129 128 139 134 129 154 167 75 45 60 37 2 315 334 325 248 297 309 308 301 301 302 298 298 295 286 283 278 283 282 285 287 287
2 322 326 270 242 158 118 115 113 118 127 136 132 151 153 166 154 143 97 53 46 5 306 296 307 296 284 296 302 296 291 291 290 295 293 295 291 285 270 268 247 277 275 267
211 178 156 186 173 164 140 157 157 138 135 144 149 151 138 117 101 89 58 1 1 351 320 305 305 308 299 289 295 291 302 300 298 299 296 293 296 296 272 273 280 280 278 273
174 161 116 165 167 156 160 163 160 149 149 149 90 107 105 121 111 83 63 21 352 306 298 297 298 295 274 266 255 259 274 289 289 285 284 286 288 288 290 295 269 286 293 263
133 114 68 167 188 179 126 116 98 88 83 97 114 88 91 98 104 134 168 226 272 278 289 294 301 301 301 295 280 280 268 272 272 275 273 276 277 277 276 274 277 259 296 284
182 26 176 124 99 122 103 132 140 148 135 116 84 104 95 101 113 230 286 300 312 297 285 287 290 291 292 285 295 295 293 285 279 277 273 270 275 274 271 259 231 237 237 58
122 64 62 153 165 144 135 146 141 154 126 121 111 90 63 86 232 255 267 290 352 319 305 297 293 292 295 311 301 294 283 273 271 276 277 272 265 265 260 243 218 203 217 195
121 185 190 208 181 181 189 143 134 141 137 145 148 106 34 347 297 352 308 274 249 265 272 276 281 294 303 295 287 288 286 285 275 273 270 268 266 267 253 228 218 204 206 186
187 195 196 175 178 164 162 155 138 142 151 143 132 119 58 29 279 292 285 280 275 269 266 270 289 294 294 291 283 283 280 279 277 273 274 273 270 271 244 218 206 188 152 179
196 176 162 156 165 161 141 149 152 137 131 133 132 169 206 242 242 260 282 301 292 293 284 294 304 315 297 291 297 293 287 285 282 281 274 274 272 270 234 204 186 160 138 124
115 98 110 109 78 106 132 129 134 135 143 141 140 131 273 270 261 275 298 269 249 243 293 295 296 294 293 293 296 292 287 286 286 283 281 276 272 261 219 186 159 141 126 120
158 139 137 135 117 96 112 141 141 153 157 149 145 192 225 265 272 249 343 358 280 295 297 297 300 310 319 320 316 305 300 296 292 290 290 282 269 218 126 124 125 121 115 113
103 125 126 129 137 126 136 137 122 128 136 146 191 219 221 262 272 280 224 193 285 310 305 316 308 322 337 333 323 324 325 323 318 316 314 316 327 93 101 107 110 107 109 113
105 110 114 119 128 126 117 113 137 145 153 170 179 192 208 219 199 91 330 259 274 295 310 303 305 347 352 341 336 340 346 348 347 349 348 354 7 45 69 83 88 97 107 117
106 106 106 110 109 103 121 194 159 197 190 200 220 215 191 42 332 225 268 286 303 319 322 304 329 354 351 333 342 345 347 351 353 353 360 9 17 29 47 60 72 85 101 114
109 105 115 121 120 128 122 157 130 120 164 220 258 263 232 223 175 246 265 277 307 322 308 315 336 348 333 317 337 334 339 339 345 349 1 6 7 13 24 34 48 68 84 107
125 125 121 109 129 130 120 172 143 165 134 100 306 294 287 264 250 253 269 288 284 296 294 308 302 322 313 305 327 324 330 329 335 339 346 343 346 347 348 347 345 326 283 251
87 102 100 101 109 105 155 177 151 172 178 157 204 253 247 267 284 317 322 310 293 278 274 283 290 304 295 301 311 311 318 312 314 316 319 319 317 317 316 310 302 292 279 264